{"data":{"norad_id":43072,"epoch":"2026-09-19T23:03:19.101600Z","epoch_age_seconds":61996,"freshness":"FRESH","line1":"1 43072U 17083C   26262.96063775  .00000000  00000+0 -69199-5 0  9995","line2":"2 43072  86.3910 282.3765 0001897  90.1279 270.0134 14.34217471457750","mean_motion":14.34217471,"eccentricity":0.0001897,"inclination_deg":86.391,"raan_deg":282.3765,"arg_perigee_deg":90.1279,"mean_anomaly_deg":270.0134,"bstar":-6.9199e-6,"rev_number":45775,"period_min":100.40318355598,"perigee_km":776.31062614729,"apogee_km":779.02553859554,"semimajor_km":7155.8050823714,"source":"CELESTRAK","updated_at":"2026-09-20T09:00:36.326751Z"}}